Location: Grand Mazuras
(45.9128°N, 1.7636°E)
Time: 03:45:19
(UTC+00:00)

Cosmos 1892 - Pass Details

Date: 18 April 2021
Orbit: 502 x 523 km, 82.5° (Epoch: 10 May)

Event Time Altitude Azimuth Distance (km) Brightness Sun altitude
Rises 19:50:15 0° 346° (NNW) 2,614 7.0 -11.4°
Reaches altitude 10° 19:52:24 10° 342° (NNW) 1,726 6.1 -11.7°
Maximum altitude 19:56:05 54° 265° (W) 624 3.4 -12.3°
Drops below altitude 10° 19:59:45 10° 188° (S) 1,719 5.1 -12.8°
Enters shadow 20:01:38 - 184° (S) 2,490 5.9 -13.1°
